Location: Laverne
(36.7100°N, 99.8930°W)
Time: 13:24:22
(UTC-06:00)

NOSS 3-1 (C) - Pass Details

Date: 19 October 2017
Orbit: 815 x 1394 km, 63.4° (Epoch: 17 November)

Event Time Altitude Azimuth Distance (km) Brightness Sun altitude
Exits shadow 05:10:28 34° 140° (SE) 1,391 4.4 -32.7°
Maximum altitude 05:11:41 37° 113° (ESE) 1,317 4.5 -32.5°
Drops below altitude 10° 05:17:14 10° 47° (NE) 2,663 6.4 -31.4°
Sets 05:20:06 0° 40° (NE) 3,699 7.2 -30.9°
